Regional Weather Roundup
Issued by NWS Northern Indiana

Home | Current Version | Previous Version | Graphics & Text | Print | Product List | Glossary On
Versions: 1 2 3 4 5 6 7 8 9 10 11 12 13 14 15 16 17 18 19 20 21 22 23 24 25 26 27 28 29 30 31 32 33 34 35 36 37 38 39 40 41 42 43 44 45 46 47 48 49 50
000
ASUS43 KIWX 231900
RWRIWX

KIWX WEATHER ROUNDUP
NATIONAL WEATHER SERVICE NORTHERN INDIANA
300 PM EDT WED MAY 23 2018

NOTE: "FAIR" INDICATES FEW OR NO CLOUDS BELOW 12,000 FEET WITH NO
SIGNIFICANT WEATHER AND/OR OBSTRUCTIONS TO VISIBILITY.

* THESE STATIONS ARE NOT UNDER NWS QUALITY CONTROL. THEY ALSO MAY NOT
  REPORT WEATHER SUCH AS PRECIPITATION OR FOG.

INZ001>027-232000-
NORTHERN INDIANA

CITY           SKY/WX    TMP DP  RH WIND       PRES   REMARKS
GARY*          MOSUNNY   70  57  64 N6        30.22S
LAPORTE*       FAIR      75  55  49 CALM      30.21S
KNOX*          FAIR      77  54  44 CALM      30.19S
SOUTH BEND     FAIR      76  53  44 VRB3      30.20S
ELKHART*       FAIR      81  54  39 CALM      30.19S
GOSHEN         FAIR      76  57  51 N3        30.19S
ROCHESTER*     FAIR      81  54  39 CALM      30.19S
WARSAW*        FAIR      75  54  46 NE3       30.19S
FORT WAYNE     FAIR      77  54  44 E6        30.19S
PERU/GRISSOM   FAIR      77  55  46 CALM      30.18S

$$
INZ028>050-232000-
CENTRAL INDIANA

CITY           SKY/WX    TMP DP  RH WIND       PRES   REMARKS
LAFAYETTE      FAIR      76  58  53 E7        30.17F
KOKOMO*        FAIR      78  56  46 E10       30.19F
MUNCIE*        FAIR      80  52  37 E9        30.18S
INDIANAPOLIS   FAIR      81  56  42 VRB7      30.16S

$$
MIZ043>046-050>051-056>058-064>065-071>073-077>080-232000-
SOUTHWEST LOWER MICHIGAN

CITY           SKY/WX    TMP DP  RH WIND       PRES   REMARKS
BATTLE CREEK   FAIR      76  50  40 CALM      30.20F
BENTON HARBOR  FAIR      64  55  72 NW7       30.22S
COLDWATER*     FAIR      75  50  40 CALM      30.19F
HILLSDALE*     FAIR      75  50  41 NW6       30.19F
HOLLAND        FAIR      68  58  70 W9        30.21F
GRAND RAPIDS   PTSUNNY   76  47  35 CALM      30.19F
KALAMAZOO      FAIR      76  50  40 CALM      30.19F
STURGIS*       FAIR      76  52  43 NE7       30.19S
THREE RIVERS*  FAIR      74  47  38 CALM      30.19F

$$
OHZ001>008-015>018-024>025-232000-
NORTHWEST OHIO

CITY           SKY/WX    TMP DP  RH WIND       PRES   REMARKS
DEFIANCE       FAIR      76  54  46 E6        30.19S
FINDLAY        FAIR      77  52  41 N7        30.18S
TOLEDO EXPRESS FAIR      79  52  38 N6        30.17S
TOLEDO METCALF FAIR      76  48  37 E5        30.19R
LIMA           FAIR      75  56  51 NE8       30.19S

$$
AND FOR LAKE MICHIGAN COASTAL AND OPEN LAKE BUOY OBSERVATIONS

STATION/POSITION TEMP    WIND        PRES    VSBY  WAVE
                 AIR SEA DIR/SP/G                  HT/PER
                 (F)     (DEG/KT/KT) (MB)    (MI)  (FT/S)
CALUMET HARBOR    60      50/  5/  7 1022.6F
MICHIGAN CITY     54      30/  6/  7   N/A
BURNS HARBOR      59        CALM     1023.7R
SAINT JOSEPH      56      20/  4/  6 1024.0
SOUTH LAKE BUOY   43 40  170/  2/  4 1023.9F         0
4 MI NW BRIDGMAN  55 56   20/  6/  6 1023.8S         0
MICHIGAN CITY     53 57   40/  6/  8   N/A           1

$$
&&




USA.gov is the U.S. government's official web portal to all federal, state and local government web resources and services.